Location: Arleux
(50.3632°N, 2.8721°E)
Time: 03:34:40
(UTC+00:00)

BREEZE-M DEB (TANK) - Pass Details

Date: 15 December 2019
Orbit: 292 x 16818 km, 49.5° (Epoch: 26 January)

Event Time Altitude Azimuth Distance (km) Brightness Sun altitude
Exits shadow 06:18:17 11° 278° (W) 9,085 7.8 -12.4°
Maximum altitude 06:39:44 79° 198° (SSW) 1,455 4.4 -9.3°
Drops below altitude 10° 06:44:28 10° 111° (ESE) 2,259 7.1 -8.6°
Sets 06:45:49 0° 110° (ESE) 2,836 8.3 -8.4°
